Location: Boiro
(42.6475°N, 8.8834°W)
Time: 05:41:40
(UTC+02:00)

SL-8 DEB - Pass Details

Date: 07 July 2022
Orbit: 890 x 1013 km, 83.1° (Epoch: 16 August)

Event Time Altitude Azimuth Distance (km) Brightness Sun altitude
Rises 23:38:11 0° 3° (N) 3,584 ? -12.5°
Reaches altitude 10° 23:41:12 10° 17° (NNE) 2,617 ? -12.9°
Maximum altitude 23:45:56 24° 70° (ENE) 1,772 ? -13.4°
Enters shadow 23:49:09 16° 113° (ESE) 2,184 ? -13.8°
